Hoquiam, WA
on Tuesday, November 27, 2012

Tuesday
Previous Day Next Day
Daily Summary
 ActualAverageRecord
Temperature
Mean Temperature °F 43°F  
Max Temperature 51°F 49°F 57°F (2013)
Min Temperature 39°F 38°F 24°F (1985)
Degree Days
Heating Degree Days 20 22  
Month to date heating degree days 510  
Cooling Degree Days 0 0  
Month to date cooling degree days 0  
Year to date cooling degree days 23  
Moisture
Dew Point 39°F   
Average Humidity 84    
Maximum Humidity 93    
Minimum Humidity 66    
Precipitation
Precipitation 0.00 in 0.38 in 3.12 in (1995)
Month to date precipitation 10.04  
Year to date precipitation 56.46  
Wind
Wind Speed 10 mph   
Max Wind Speed 13 mph   
Max Gust Speed mph   
Visibility 10 miles   
Events     

Key: T is trace of precipitation, MM is missing value
Source: NWS Daily Summary
Time(PST)TemperatureDew PointHumidity Pressure Visibility Wind DirectionWind SpeedGust SpeedPrecipitationEvents Conditions
12:53 AM 39.0°F 37.0°F 93% 30.06 in 10.0 miles ENE 10.4 mph - N/A   Overcast
1:53 AM 39.9°F 37.0°F 89% 30.06 in 10.0 miles ENE 12.7 mph - N/A   Overcast
2:21 AM 39.2°F 37.4°F 93% 30.04 in 10.0 miles East 10.4 mph - N/A   Overcast
2:48 AM 39.2°F 37.4°F 93% 30.04 in 10.0 miles ENE 6.9 mph - N/A   Overcast
2:53 AM 39.9°F 37.9°F 93% 30.05 in 10.0 miles East 10.4 mph - N/A   Overcast
3:53 AM 39.0°F 37.0°F 93% 30.04 in 10.0 miles ENE 10.4 mph - N/A   Overcast
4:05 AM 39.2°F 37.4°F 93% 30.03 in 10.0 miles ENE 6.9 mph - N/A   Overcast
4:22 AM 39.2°F 37.4°F 93% 30.03 in 10.0 miles ENE 12.7 mph - N/A   Overcast
4:53 AM 39.9°F 37.0°F 89% 30.04 in 9.0 miles NE 11.5 mph - N/A   Overcast
5:48 AM 39.2°F 37.4°F 93% 30.03 in 10.0 miles East 10.4 mph - N/A   Overcast
5:53 AM 39.9°F 37.0°F 89% 30.04 in 10.0 miles ENE 9.2 mph - N/A   Overcast
6:53 AM 41.0°F 37.0°F 86% 30.04 in 10.0 miles ENE 10.4 mph - N/A   Overcast
7:53 AM 41.0°F 37.9°F 89% 30.04 in 10.0 miles ENE 10.4 mph - N/A   Overcast
8:53 AM 43.0°F 37.0°F 80% 30.04 in 10.0 miles ENE 8.1 mph - N/A   Overcast
9:53 AM 43.0°F 37.9°F 82% 30.04 in 10.0 miles ENE 12.7 mph - N/A   Overcast
10:53 AM 45.0°F 39.0°F 80% 30.03 in 10.0 miles ENE 11.5 mph - N/A   Overcast
11:53 AM 48.0°F 39.9°F 74% 30.00 in 10.0 miles East 10.4 mph - N/A   Clear
12:53 PM 48.9°F 41.0°F 74% 29.99 in 10.0 miles East 8.1 mph - N/A   Clear
1:53 PM 50.0°F 42.1°F 74% 29.97 in 10.0 miles East 8.1 mph - N/A   Mostly Cloudy
2:53 PM 51.1°F 39.9°F 66% 29.95 in 10.0 miles ENE 9.2 mph - N/A   Overcast
3:53 PM 50.0°F 39.9°F 68% 29.94 in 10.0 miles ENE 8.1 mph - N/A   Mostly Cloudy
4:53 PM 48.0°F 41.0°F 77% 29.95 in 10.0 miles ESE 9.2 mph - N/A   Partly Cloudy
5:53 PM 46.0°F 39.9°F 79% 29.94 in 10.0 miles ENE 5.8 mph - N/A   Overcast
6:53 PM 46.0°F 39.9°F 79% 29.93 in 10.0 miles NE 8.1 mph - N/A   Clear
7:53 PM 44.1°F 39.9°F 85% 29.93 in 10.0 miles NE 8.1 mph - N/A   Partly Cloudy
8:53 PM 44.1°F 39.0°F 82% 29.91 in 10.0 miles NE 8.1 mph - N/A   Clear
9:53 PM 43.0°F 39.9°F 89% 29.90 in 10.0 miles ENE 10.4 mph - N/A   Clear
10:53 PM 43.0°F 39.0°F 86% 29.89 in 10.0 miles ENE 6.9 mph - N/A   Clear
11:53 PM 42.1°F 39.0°F 89% 29.88 in 10.0 miles East 10.4 mph - N/A   Clear
Moon Phase
Nov. 27 Nov. 28 Dec. 06 Dec. 13 Dec. 20
Sunrise:07:36 AM (PST) Moon Rise:04:06 PM (PST)11/27
Sunset:04:30 PM (PST) Moon Set:06:45 AM (PST)11/27

Copyright © 2014 The Weather Underground, Inc.